Regional Weather Roundup
Issued by NWS

Home | Current Version | Previous Version | Graphics & Text | Print | Product List | Glossary On
Versions: 1 2 3 4 5 6 7 8 9 10 11 12 13 14 15 16 17 18 19 20 21 22 23 24 25 26 27 28 29 30 31 32 33 34 35 36 37 38 39 40 41 42 43 44 45 46 47 48 49 50
000
ASUS43 KFSD 250002
RWRSD

WEATHER ROUNDUP FOR SOUTH DAKOTA
NATIONAL WEATHER SERVICE SIOUX FALLS SD
700 PM CDT SUN JUL 24 2016

NOTE: "FAIR" INDICATES FEW OR NO CLOUDS BELOW 12,000 FEET WITH NO
SIGNIFICANT WEATHER AND/OR OBSTRUCTIONS TO VISIBILITY.


SDZ001>005-009-010-012>017-250100-
NORTHWEST AND NORTH CENTRAL SOUTH DAKOTA

CITY           SKY/WX    TMP DP  RH WIND       PRES   REMARKS
BUFFALO          N/A     90  41  18 S13G18    29.99F
FAITH            N/A     86  42  21 SE6       30.06F
MOBRIDGE       SUNNY     87  52  29 NE6       30.01F
$$

SDZ012>016-024>037-041>051-057-063-072>074-250100-
SOUTHWEST AND SOUTH CENTRAL SOUTH DAKOTA

CITY           SKY/WX    TMP DP  RH WIND       PRES   REMARKS
RAPID CTY ARPT SUNNY     86  47  25 S8        30.08S
PIERRE         SUNNY     86  47  25 NE7       30.03S
CUSTER         SUNNY     77  41  27 SE12G17   30.22F
ELLSWORTH AFB  SUNNY     86  47  26 SE12      30.07F
PHILIP         SUNNY     87  54  32 E6        30.04F
PINE RIDGE     SUNNY     86  46  24 SE8G18    30.09F
WINNER         FAIR      87  46  24 N3        30.07R
$$

SDZ004>011-016>023-039-040-250100-
NORTHEAST SOUTH DAKOTA

CITY           SKY/WX    TMP DP  RH WIND       PRES   REMARKS
ABERDEEN       SUNNY     83  56  39 NW10      30.01S
WATERTOWN      SUNNY     82  55  39 W13       30.02S
BROOKINGS      SUNNY     78  63  59 NW10      30.03S
SISSETON         N/A     81  57  43 NW12      29.98R
$$

SDZ017-020-022-023-036>040-048>070-250100-
SOUTHEAST SOUTH DAKOTA

CITY           SKY/WX    TMP DP  RH WIND       PRES   REMARKS
SIOUX FALLS    MOSUNNY   78  63  59 N9        30.03F
HURON          SUNNY     83  58  42 E5        30.02S
CHAMBERLAIN    SUNNY     85  53  33 CALM      30.05S
MITCHELL       SUNNY     81  57  43 N3        30.04S
YANKTON        MOSUNNY   79  57  47 N6        30.02F
$$

ABBREVIATIONS USED IN REMARKS
   TC - TEMPERATURE IN CELSIUS
  WCI - WIND CHILL INDEX
   HX - HEAT INDEX
  VSB - VISIBILITY




USA.gov is the U.S. government's official web portal to all federal, state and local government web resources and services.